When you browse on this site, cookies collect data to enhance your experience and personalize the content and advertising you see.
Visit our Privacy Policy to learn more. By continuing to use the site, you agree to this use of cookies and data.
  • In France
  • List of Countries
  • For 7 days
  • Water Temperature
  • Weather Map
  • Weather Widgets
  • user-avatar
    Login

    Hourly Weather Nzérékoré

    Today, 27 May, Wednesday

    Time Temperature Precipitation Wind Pressure Humidity
    00:00 +27°C° 0.9 mm 0 mps 744 mmHg 80%
    01:00 +29°C° 0 mm 1 mps 745 mmHg 83%
    02:00 +28°C° 0.6 mm 1 mps 744 mmHg 84%
    03:00 +28°C° 0.6 mm 1 mps 744 mmHg 85%
    04:00 +28°C° 0.6 mm 1 mps 743 mmHg 86%
    05:00 +28°C° 0.1 mm 1 mps 744 mmHg 87%
    06:00 +28°C° 0.1 mm 1 mps 744 mmHg 88%
    07:00 +28°C° 0 mm 2 mps 745 mmHg 89%
    08:00 +29°C° 0 mm 1 mps 745 mmHg 83%
    09:00 +30°C° 0 mm 1 mps 746 mmHg 78%
    10:00 +32°C° 0 mm 1 mps 746 mmHg 72%
    11:00 +32°C° 0 mm 2 mps 745 mmHg 72%
    12:00 +32°C° 0 mm 2 mps 745 mmHg 72%
    13:00 +32°C° 0 mm 2 mps 744 mmHg 71%
    14:00 +34°C° 0 mm 2 mps 743 mmHg 67%
    15:00 +33°C° 0 mm 1 mps 742 mmHg 63%
    16:00 +34°C° 0 mm 1 mps 741 mmHg 59%
    17:00 +33°C° 0 mm 1 mps 742 mmHg 65%
    18:00 +31°C° 0 mm 2 mps 742 mmHg 71%
    19:00 +30°C° 0 mm 2 mps 742 mmHg 77%
    20:00 +29°C° 0 mm 2 mps 743 mmHg 78%
    21:00 +29°C° 0 mm 2 mps 743 mmHg 80%
    22:00 +29°C° 0 mm 2 mps 744 mmHg 82%
    23:00 +28°C° 0 mm 2 mps 744 mmHg 83%

    Tomorrow, 28 May, Thursday

    Time Temperature Precipitation Wind Pressure Humidity
    00:00 +28°C° 0 mm 2 mps 744 mmHg 84%
    01:00 +28°C° 0 mm 2 mps 744 mmHg 84%
    02:00 +28°C° 0 mm 2 mps 744 mmHg 86%
    03:00 +27°C° 0 mm 3 mps 743 mmHg 88%
    04:00 +27°C° 0 mm 3 mps 743 mmHg 90%
    05:00 +27°C° 0 mm 3 mps 743 mmHg 90%
    06:00 +27°C° 0 mm 2 mps 744 mmHg 89%
    07:00 +27°C° 0 mm 2 mps 744 mmHg 89%
    08:00 +29°C° 0 mm 2 mps 745 mmHg 83%
    09:00 +30°C° 0 mm 2 mps 745 mmHg 76%
    10:00 +32°C° 0 mm 2 mps 745 mmHg 69%
    11:00 +34°C° 0 mm 2 mps 745 mmHg 65%
    12:00 +35°C° 0 mm 2 mps 744 mmHg 61%
    13:00 +36°C° 0 mm 2 mps 743 mmHg 57%
    14:00 +36°C° 0 mm 2 mps 743 mmHg 57%
    15:00 +36°C° 0 mm 2 mps 742 mmHg 57%
    16:00 +36°C° 0 mm 2 mps 741 mmHg 57%
    17:00 +34°C° 0 mm 2 mps 742 mmHg 62%
    18:00 +32°C° 0 mm 2 mps 742 mmHg 67%
    19:00 +31°C° 0 mm 2 mps 742 mmHg 73%
    20:00 +30°C° 0.6 mm 2 mps 743 mmHg 77%
    21:00 +29°C° 0.6 mm 2 mps 743 mmHg 81%
    22:00 +28°C° 0.6 mm 2 mps 744 mmHg 85%
    23:00 +28°C° 2 mm 3 mps 744 mmHg 86%

    Day after tomorrow, 29 May, Friday

    Time Temperature Precipitation Wind Pressure Humidity
    00:00 +28°C° 2 mm 4 mps 744 mmHg 87%
    01:00 +27°C° 2 mm 5 mps 744 mmHg 89%
    02:00 +27°C° 0 mm 4 mps 743 mmHg 90%
    03:00 +27°C° 0 mm 3 mps 743 mmHg 91%
    04:00 +26°C° 0 mm 3 mps 743 mmHg 92%
    05:00 +27°C° 0 mm 3 mps 743 mmHg 92%
    06:00 +27°C° 0 mm 3 mps 744 mmHg 92%
    07:00 +27°C° 0 mm 2 mps 744 mmHg 92%
    08:00 +28°C° 0 mm 3 mps 745 mmHg 87%
    09:00 +29°C° 0 mm 3 mps 745 mmHg 81%
    10:00 +30°C° 0 mm 3 mps 745 mmHg 75%
    11:00 +31°C° 0.2 mm 3 mps 745 mmHg 72%
    12:00 +33°C° 0.2 mm 3 mps 744 mmHg 69%
    13:00 +34°C° 0.2 mm 3 mps 743 mmHg 66%
    14:00 +34°C° 0.2 mm 3 mps 743 mmHg 66%
    15:00 +34°C° 0.2 mm 3 mps 742 mmHg 66%
    16:00 +34°C° 0.2 mm 3 mps 742 mmHg 66%
    17:00 +33°C° 0.1 mm 3 mps 742 mmHg 71%
    18:00 +30°C° 0.1 mm 3 mps 742 mmHg 76%
    19:00 +29°C° 0.1 mm 3 mps 743 mmHg 81%
    20:00 +29°C° 0 mm 3 mps 743 mmHg 83%
    21:00 +28°C° 0 mm 2 mps 743 mmHg 84%
    22:00 +27°C° 0 mm 2 mps 744 mmHg 85%
    23:00 +27°C° 0 mm 2 mps 744 mmHg 87%

    30 May, Saturday

    Time Temperature Precipitation Wind Pressure Humidity
    00:00 +27°C° 0 mm 2 mps 744 mmHg 89%
    01:00 +27°C° 0 mm 2 mps 744 mmHg 90%
    02:00 +27°C° 0.1 mm 2 mps 744 mmHg 90%
    03:00 +26°C° 0.1 mm 3 mps 744 mmHg 89%
    04:00 +26°C° 0.1 mm 3 mps 744 mmHg 89%
    05:00 +26°C° 0 mm 2 mps 744 mmHg 89%
    06:00 +26°C° 0 mm 2 mps 744 mmHg 89%
    07:00 +26°C° 0 mm 1 mps 744 mmHg 89%
    08:00 +28°C° 0 mm 1 mps 744 mmHg 83%
    09:00 +29°C° 0 mm 1 mps 745 mmHg 78%
    10:00 +30°C° 0 mm 1 mps 745 mmHg 72%
    11:00 +31°C° 0 mm 1 mps 744 mmHg 67%
    12:00 +32°C° 0 mm 2 mps 744 mmHg 62%
    13:00 +34°C° 0 mm 2 mps 743 mmHg 57%
    14:00 +35°C° 0 mm 2 mps 743 mmHg 56%
    15:00 +35°C° 0 mm 2 mps 742 mmHg 56%
    16:00 +35°C° 0 mm 2 mps 741 mmHg 55%
    17:00 +34°C° 0 mm 2 mps 742 mmHg 60%
    18:00 +32°C° 0 mm 2 mps 742 mmHg 65%
    19:00 +30°C° 0 mm 2 mps 742 mmHg 70%
    20:00 +30°C° 0 mm 2 mps 743 mmHg 73%
    21:00 +29°C° 0 mm 2 mps 744 mmHg 75%
    22:00 +29°C° 0 mm 2 mps 744 mmHg 78%
    23:00 +29°C° 0 mm 2 mps 744 mmHg 80%

    31 May, Sunday

    Time Temperature Precipitation Wind Pressure Humidity
    00:00 +28°C° 0 mm 3 mps 744 mmHg 82%
    01:00 +28°C° 0 mm 3 mps 744 mmHg 84%
    02:00 +28°C° 0 mm 3 mps 744 mmHg 86%
    03:00 +27°C° 0 mm 3 mps 744 mmHg 88%
    04:00 +27°C° 0 mm 3 mps 744 mmHg 91%
    05:00 +27°C° 0 mm 3 mps 744 mmHg 90%
    06:00 +27°C° 0 mm 3 mps 744 mmHg 90%
    07:00 +27°C° 0 mm 3 mps 745 mmHg 89%
    08:00 +28°C° 0 mm 3 mps 745 mmHg 82%
    09:00 +30°C° 0 mm 2 mps 745 mmHg 75%
    10:00 +31°C° 0 mm 2 mps 746 mmHg 69%
    11:00 +32°C° 0 mm 2 mps 745 mmHg 67%
    12:00 +34°C° 0 mm 2 mps 744 mmHg 64%
    13:00 +34°C° 0 mm 3 mps 744 mmHg 62%
    14:00 +35°C° 0 mm 2 mps 743 mmHg 61%
    15:00 +35°C° 0 mm 2 mps 743 mmHg 60%
    16:00 +35°C° 0 mm 2 mps 742 mmHg 58%
    17:00 +33°C° 0 mm 1 mps 742 mmHg 64%
    18:00 +32°C° 0 mm 1 mps 742 mmHg 69%
    19:00 +30°C° 0 mm 1 mps 743 mmHg 74%
    20:00 +30°C° 0 mm 1 mps 743 mmHg 77%
    21:00 +29°C° 0 mm 1 mps 744 mmHg 79%
    22:00 +29°C° 0 mm 1 mps 744 mmHg 81%
    23:00 +28°C° 0 mm 1 mps 744 mmHg 83%

    1 June, Monday

    Time Temperature Precipitation Wind Pressure Humidity
    00:00 +28°C° 0 mm 1 mps 744 mmHg 85%
    01:00 +28°C° 0 mm 1 mps 744 mmHg 86%
    02:00 +28°C° 0.4 mm 2 mps 744 mmHg 88%
    03:00 +27°C° 0.4 mm 2 mps 744 mmHg 90%
    04:00 +27°C° 0.4 mm 3 mps 743 mmHg 91%
    05:00 +27°C° 0 mm 3 mps 744 mmHg 92%
    06:00 +27°C° 0 mm 3 mps 744 mmHg 92%
    07:00 +27°C° 0 mm 3 mps 744 mmHg 92%
    08:00 +28°C° 0 mm 3 mps 744 mmHg 87%
    09:00 +29°C° 0 mm 3 mps 744 mmHg 81%
    10:00 +31°C° 0 mm 3 mps 745 mmHg 76%
    11:00 +33°C° 0 mm 3 mps 744 mmHg 70%
    12:00 +34°C° 0 mm 2 mps 744 mmHg 64%
    13:00 +36°C° 0 mm 2 mps 743 mmHg 58%
    14:00 +36°C° 0 mm 2 mps 743 mmHg 58%
    15:00 +36°C° 0 mm 2 mps 742 mmHg 58%
    16:00 +36°C° 0 mm 2 mps 741 mmHg 57%
    17:00 +34°C° 0 mm 2 mps 742 mmHg 63%
    18:00 +32°C° 0 mm 2 mps 742 mmHg 70%
    19:00 +30°C° 0 mm 2 mps 742 mmHg 76%
    20:00 +30°C° 0 mm 2 mps 742 mmHg 77%
    21:00 +30°C° 0 mm 2 mps 743 mmHg 79%
    22:00 +29°C° 0 mm 2 mps 744 mmHg 81%
    23:00 +29°C° 0.1 mm 2 mps 744 mmHg 83%
    Show more